TimeMDT,TemperatureF,Dew PointF,Humidity,Sea Level PressureIn,VisibilityMPH,Wind Direction,Wind SpeedMPH,Gust SpeedMPH,PrecipitationIn,Events,Conditions,WindDirDegrees,DateUTC
12:15 AM,37.4,33.8,87,29.87,4.0,East,3.5,-,N/A,,Overcast,80,2013-09-27 06:15:00
12:35 AM,37.4,33.8,87,29.87,4.0,ESE,3.5,-,N/A,,Overcast,110,2013-09-27 06:35:00
12:55 AM,35.6,33.8,93,29.88,3.0,Calm,Calm,-,N/A,Snow,Light Snow,0,2013-09-27 06:55:00
1:15 AM,35.6,33.8,93,29.88,5.0,Calm,Calm,-,N/A,Snow,Light Snow,0,2013-09-27 07:15:00
1:35 AM,35.6,33.8,93,29.88,7.0,Calm,Calm,-,N/A,,Overcast,0,2013-09-27 07:35:00
1:55 AM,35.6,33.8,93,29.88,10.0,East,3.5,-,N/A,,Overcast,100,2013-09-27 07:55:00
2:15 AM,35.6,33.8,93,29.88,5.0,Calm,Calm,-,N/A,,Overcast,0,2013-09-27 08:15:00
2:35 AM,35.6,33.8,93,29.88,7.0,Calm,Calm,-,N/A,,Overcast,0,2013-09-27 08:35:00
2:55 AM,35.6,33.8,93,29.88,5.0,Calm,Calm,-,N/A,,Overcast,0,2013-09-27 08:55:00
3:15 AM,35.6,33.8,93,29.88,7.0,Calm,Calm,-,N/A,,Overcast,0,2013-09-27 09:15:00
3:35 AM,35.6,33.8,93,29.88,7.0,Calm,Calm,-,N/A,,Overcast,0,2013-09-27 09:35:00
3:55 AM,35.6,33.8,93,29.88,7.0,SE,4.6,-,N/A,,Overcast,130,2013-09-27 09:55:00
4:15 AM,35.6,33.8,93,29.89,10.0,Calm,Calm,-,N/A,,Overcast,0,2013-09-27 10:15:00
4:35 AM,35.6,33.8,93,29.89,10.0,Calm,Calm,-,N/A,,Overcast,0,2013-09-27 10:35:00
4:55 AM,35.6,33.8,93,29.90,10.0,Calm,Calm,-,N/A,,Overcast,0,2013-09-27 10:55:00
5:15 AM,35.6,33.8,93,29.90,10.0,Calm,Calm,-,N/A,,Overcast,0,2013-09-27 11:15:00
5:35 AM,35.6,33.8,93,29.91,10.0,Calm,Calm,-,N/A,,Overcast,0,2013-09-27 11:35:00
5:55 AM,35.6,33.8,93,29.92,10.0,Calm,Calm,-,N/A,,Overcast,0,2013-09-27 11:55:00
6:15 AM,35.6,33.8,93,29.92,10.0,Calm,Calm,-,N/A,,Overcast,0,2013-09-27 12:15:00
6:35 AM,35.6,33.8,93,29.93,10.0,Calm,Calm,-,N/A,,Overcast,0,2013-09-27 12:35:00
6:55 AM,35.6,33.8,93,29.93,10.0,Calm,Calm,-,N/A,,Overcast,0,2013-09-27 12:55:00
7:15 AM,35.6,33.8,93,29.95,10.0,Calm,Calm,-,N/A,,Overcast,0,2013-09-27 13:15:00
7:35 AM,35.6,33.8,93,29.95,10.0,SE,3.5,-,N/A,,Overcast,140,2013-09-27 13:35:00
7:55 AM,35.6,33.8,93,29.96,10.0,Calm,Calm,-,N/A,,Overcast,0,2013-09-27 13:55:00
8:15 AM,37.4,33.8,87,29.97,10.0,ENE,3.5,-,N/A,,Overcast,60,2013-09-27 14:15:00
8:35 AM,37.4,35.6,93,29.98,10.0,East,4.6,-,N/A,,Overcast,100,2013-09-27 14:35:00
8:55 AM,37.4,35.6,93,29.98,10.0,East,3.5,-,N/A,,Mostly Cloudy,90,2013-09-27 14:55:00
9:15 AM,41.0,33.8,76,29.98,10.0,Calm,Calm,-,N/A,,Mostly Cloudy,0,2013-09-27 15:15:00
9:35 AM,39.2,32.0,75,29.99,10.0,Calm,Calm,-,N/A,,Overcast,0,2013-09-27 15:35:00
9:55 AM,41.0,32.0,70,30.01,10.0,Calm,Calm,-,N/A,,Overcast,0,2013-09-27 15:55:00
10:15 AM,41.0,33.8,76,30.01,10.0,Calm,Calm,-,N/A,,Overcast,0,2013-09-27 16:15:00
10:35 AM,41.0,33.8,76,30.01,10.0,South,3.5,-,N/A,,Overcast,190,2013-09-27 16:35:00
10:55 AM,41.0,33.8,76,30.02,10.0,SSW,3.5,-,N/A,,Overcast,200,2013-09-27 16:55:00
11:15 AM,41.0,32.0,70,30.02,10.0,Calm,Calm,-,N/A,,Overcast,0,2013-09-27 17:15:00
11:35 AM,42.8,33.8,70,30.03,10.0,WSW,9.2,-,N/A,,Light Drizzle,250,2013-09-27 17:35:00
11:55 AM,41.0,33.8,76,30.05,7.0,NNW,9.2,-,N/A,,Overcast,340,2013-09-27 17:55:00
12:15 PM,35.6,32.0,87,30.05,1.2,Calm,Calm,-,N/A,Snow,Light Snow,0,2013-09-27 18:15:00
12:35 PM,35.6,32.0,87,30.06,1.5,South,5.8,-,N/A,Snow,Light Snow,180,2013-09-27 18:35:00
12:55 PM,37.4,35.6,93,30.06,7.0,Calm,Calm,-,N/A,,Mostly Cloudy,0,2013-09-27 18:55:00
1:15 PM,41.0,33.8,76,30.06,10.0,Calm,Calm,-,N/A,,Scattered Clouds,0,2013-09-27 19:15:00
1:35 PM,42.8,33.8,70,30.06,10.0,Calm,Calm,-,N/A,,Mostly Cloudy,0,2013-09-27 19:35:00
1:55 PM,44.6,33.8,66,30.06,10.0,West,5.8,-,N/A,,Overcast,260,2013-09-27 19:55:00
2:15 PM,42.8,32.0,66,30.07,10.0,Calm,Calm,-,N/A,,Overcast,0,2013-09-27 20:15:00
2:35 PM,46.4,33.8,62,30.07,10.0,NNW,3.5,-,N/A,,Overcast,340,2013-09-27 20:35:00
2:55 PM,44.6,32.0,61,30.08,10.0,Calm,Calm,-,N/A,,Mostly Cloudy,0,2013-09-27 20:55:00
3:15 PM,44.6,33.8,66,30.08,10.0,Calm,Calm,-,N/A,,Mostly Cloudy,0,2013-09-27 21:15:00
3:35 PM,44.6,33.8,66,30.09,10.0,SSW,9.2,-,N/A,,Overcast,210,2013-09-27 21:35:00
3:55 PM,44.6,32.0,61,30.09,10.0,Calm,Calm,-,N/A,,Overcast,0,2013-09-27 21:55:00
4:15 PM,44.6,32.0,61,30.10,10.0,Calm,Calm,-,N/A,,Overcast,0,2013-09-27 22:15:00
4:35 PM,44.6,30.2,57,30.10,10.0,West,3.5,-,N/A,,Overcast,260,2013-09-27 22:35:00
4:55 PM,44.6,30.2,57,30.11,10.0,NW,3.5,-,N/A,,Overcast,310,2013-09-27 22:55:00
5:15 PM,44.6,32.0,61,30.12,10.0,NNW,3.5,-,N/A,,Overcast,340,2013-09-27 23:15:00
5:35 PM,44.6,28.4,53,30.13,10.0,West,3.5,-,N/A,,Mostly Cloudy,270,2013-09-27 23:35:00
5:55 PM,44.6,30.2,57,30.13,10.0,Calm,Calm,-,N/A,,Scattered Clouds,0,2013-09-27 23:55:00
6:15 PM,44.6,30.2,57,30.14,10.0,Calm,Calm,-,N/A,,Clear,0,2013-09-28 00:15:00
6:35 PM,44.6,28.4,53,30.15,10.0,West,4.6,-,N/A,,Scattered Clouds,260,2013-09-28 00:35:00
6:55 PM,42.8,30.2,61,30.16,10.0,Calm,Calm,-,N/A,,Clear,0,2013-09-28 00:55:00
7:15 PM,41.0,32.0,70,30.16,10.0,Calm,Calm,-,N/A,,Mostly Cloudy,0,2013-09-28 01:15:00
7:35 PM,42.8,30.2,61,30.17,10.0,West,4.6,-,N/A,,Overcast,260,2013-09-28 01:35:00
7:55 PM,41.0,30.2,65,30.17,10.0,WSW,4.6,-,N/A,,Overcast,240,2013-09-28 01:55:00
8:15 PM,41.0,32.0,70,30.18,10.0,WSW,6.9,-,N/A,,Overcast,250,2013-09-28 02:15:00
8:35 PM,37.4,32.0,81,30.19,10.0,SE,3.5,-,N/A,,Scattered Clouds,140,2013-09-28 02:35:00
8:55 PM,37.4,32.0,81,30.19,10.0,Calm,Calm,-,N/A,,Clear,0,2013-09-28 02:55:00
9:15 PM,37.4,32.0,81,30.20,10.0,Calm,Calm,-,N/A,,Clear,0,2013-09-28 03:15:00
9:35 PM,35.6,30.2,81,30.20,10.0,Calm,Calm,-,N/A,,Clear,0,2013-09-28 03:35:00
9:55 PM,33.8,30.2,87,30.21,10.0,Calm,Calm,-,N/A,,Clear,0,2013-09-28 03:55:00
10:15 PM,33.8,30.2,87,30.21,10.0,Calm,Calm,-,N/A,,Clear,0,2013-09-28 04:15:00
10:35 PM,33.8,30.2,87,30.22,10.0,Calm,Calm,-,N/A,,Clear,0,2013-09-28 04:35:00
10:55 PM,32.0,30.2,93,30.22,10.0,SE,3.5,-,N/A,,Clear,130,2013-09-28 04:55:00
11:15 PM,32.0,30.2,93,30.23,10.0,Calm,Calm,-,N/A,,Clear,0,2013-09-28 05:15:00
11:35 PM,32.0,30.2,93,30.23,10.0,Calm,Calm,-,N/A,,Clear,0,2013-09-28 05:35:00
11:55 PM,32.0,30.2,93,30.23,10.0,Calm,Calm,-,N/A,,Clear,0,2013-09-28 05:55:00